TimeEST,TemperatureF,Dew PointF,Humidity,Sea Level PressureIn,VisibilityMPH,Wind Direction,Wind SpeedMPH,Gust SpeedMPH,PrecipitationIn,Events,Conditions,WindDirDegrees,DateUTC
12:53 AM,24.1,17.1,75,29.73,10.0,WSW,9.2,-,N/A,,Mostly Cloudy,240,2013-12-16 05:53:00
1:53 AM,25.0,17.1,72,29.75,10.0,WSW,8.1,-,N/A,,Mostly Cloudy,240,2013-12-16 06:53:00
2:53 AM,27.0,18.0,69,29.76,10.0,WSW,9.2,-,N/A,,Overcast,240,2013-12-16 07:53:00
3:53 AM,28.0,18.0,66,29.77,10.0,West,8.1,-,N/A,,Overcast,270,2013-12-16 08:53:00
4:53 AM,27.0,18.0,69,29.79,10.0,West,10.4,-,N/A,,Mostly Cloudy,260,2013-12-16 09:53:00
5:53 AM,26.1,15.1,63,29.81,10.0,West,11.5,-,N/A,,Clear,260,2013-12-16 10:53:00
6:53 AM,24.1,12.9,62,29.84,10.0,West,8.1,-,N/A,,Clear,270,2013-12-16 11:53:00
7:53 AM,24.1,10.0,55,29.87,10.0,West,13.8,-,N/A,,Clear,260,2013-12-16 12:53:00
8:53 AM,24.1,10.0,55,29.91,10.0,WNW,15.0,24.2,N/A,,Clear,290,2013-12-16 13:53:00
9:53 AM,25.0,9.0,51,29.93,10.0,WNW,13.8,27.6,N/A,,Clear,290,2013-12-16 14:53:00
10:53 AM,26.1,8.1,47,29.93,10.0,WNW,16.1,25.3,N/A,,Clear,290,2013-12-16 15:53:00
11:53 AM,27.0,6.1,41,29.93,10.0,West,16.1,21.9,N/A,,Clear,280,2013-12-16 16:53:00
12:53 PM,27.0,3.0,36,29.94,10.0,West,10.4,23.0,N/A,,Clear,280,2013-12-16 17:53:00
1:53 PM,27.0,3.0,36,29.94,10.0,West,16.1,24.2,N/A,,Clear,280,2013-12-16 18:53:00
2:53 PM,27.0,3.0,36,29.96,10.0,West,17.3,29.9,N/A,,Scattered Clouds,270,2013-12-16 19:53:00
3:53 PM,25.0,3.0,39,30.01,10.0,WNW,12.7,25.3,N/A,,Partly Cloudy,290,2013-12-16 20:53:00
4:53 PM,23.0,3.9,44,30.04,10.0,West,11.5,19.6,N/A,,Partly Cloudy,270,2013-12-16 21:53:00
5:53 PM,23.0,3.9,44,30.07,10.0,West,12.7,21.9,N/A,,Partly Cloudy,270,2013-12-16 22:53:00
6:53 PM,21.0,3.9,48,30.10,10.0,West,6.9,-,N/A,,Clear,260,2013-12-16 23:53:00
7:53 PM,19.9,5.0,52,30.13,10.0,West,11.5,-,N/A,,Clear,260,2013-12-17 00:53:00
8:53 PM,19.9,3.9,50,30.15,10.0,West,10.4,-,N/A,,Clear,270,2013-12-17 01:53:00
9:53 PM,19.0,3.9,52,30.17,10.0,West,10.4,-,N/A,,Clear,260,2013-12-17 02:53:00
10:53 PM,18.0,3.9,54,30.18,10.0,West,3.5,-,N/A,,Clear,270,2013-12-17 03:53:00
11:53 PM,16.0,3.9,59,30.20,10.0,WNW,3.5,-,N/A,,Clear,300,2013-12-17 04:53:00